Location: Moscow
(38.8570°N, 84.2291°W)
Time: 18:19:41
(UTC+00:00)

JUGNU - Visible Passes

Search period start: 07 March 2026 00:00
Search period end: 17 March 2026 00:00
Orbit: 833 x 860 km, 20.0° (Epoch: 6 March)

Date Brightness Start Highest point End Pass type
(mag) Time Alt. Az. Time Alt. Az. Time Alt. Az.
11 Mar ? 11:24:21 10° S 11:24:24 10° S 11:24:27 10° S visible
12 Mar ? 11:07:07 10° S 11:07:58 10° S 11:08:50 10° SSE visible
13 Mar ? 10:50:23 10° S 10:51:33 11° S 10:52:43 10° SSE visible
14 Mar ? 10:33:47 10° S 10:35:08 11° S 10:36:30 10° SSE visible
15 Mar ? 10:17:15 10° SSW 10:18:43 11° S 10:20:12 10° SSE visible
16 Mar ? 10:01:24 11° S 10:02:18 11° S 10:03:51 10° SSE visible
